DW0231 Weather Reports


Display with metric or nautical units.
time (UTC)temp
F
wind
direction
speed
MPH
gust
MPH
rain 1hr
in
rain 24hr
in
rain mn
in
humidity
%
barometer
mb
20260506170048 53 345 3.0 0.0 0.00 0.00 0.13 33 1017.0
20260506164529 52 360 3.0 0.0 0.00 0.00 0.13 37 1016.9
20260506163020 51 13 4.0 0.0 0.00 0.00 0.13 40 1016.6
20260506161511 51 350 3.0 0.0 0.00 0.00 0.13 42 1016.4
20260506160054 50 20 4.0 0.0 0.00 0.00 0.13 44 1016.2
20260506154533 50 304 3.0 0.0 0.00 0.00 0.13 46 1016.2
20260506153036 49 5 4.0 0.0 0.00 0.00 0.13 46 1016.2
20260506151549 49 5 3.0 0.0 0.00 0.00 0.13 47 1016.1
20260506150039 48 28 4.0 0.0 0.00 0.00 0.13 46 1016.0
20260506144510 49 5 2.0 0.0 0.00 0.00 0.13 45 1015.5
20260506143102 49 5 2.0 0.0 0.00 0.00 0.13 47 1015.6
20260506141539 49 355 2.0 0.0 0.00 0.00 0.13 45 1015.3
20260506140049 48 348 1.0 0.0 0.00 0.00 0.13 46 1015.3
20260506134536 47 44 2.0 0.0 0.00 0.00 0.13 44 1014.9
20260506133039 45 47 3.0 0.0 0.00 0.00 0.13 46 1014.5
20260506131525 44 348 2.0 0.0 0.00 0.00 0.13 49 1014.0
20260506130009 46 347 2.0 0.0 0.00 0.00 0.13 43 1013.6
20260506124604 47 15 1.0 0.0 0.00 0.00 0.13 41 1013.1
20260506123038 48 56 2.0 0.0 0.00 0.00 0.13 39 1012.8
20260506121514 48 9 3.0 0.0 0.00 0.00 0.13 41 1012.3
20260506120059 48 19 3.0 0.0 0.00 0.00 0.13 37 1012.2
20260506114542 47 30 2.0 0.0 0.00 0.00 0.13 43 1012.2
20260506113105 47 330 2.0 0.0 0.00 0.00 0.13 48 1012.3
20260506111543 48 96 3.0 0.0 0.00 0.00 0.13 48 1012.0
20260506110041 48 87 6.0 0.0 0.00 0.00 0.13 48 1011.9
20260506104532 48 71 6.0 0.0 0.00 0.00 0.13 50 1012.0
20260506103006 47 56 7.0 0.0 0.00 0.00 0.13 52 1011.8
20260506101547 46 105 6.0 0.0 0.00 0.00 0.13 56 1011.3
20260506100022 46 102 6.0 0.0 0.00 0.00 0.13 58 1011.1
20260506094504 46 71 7.0 0.0 0.00 0.00 0.13 61 1010.5
20260506093102 45 59 8.0 0.0 0.00 0.00 0.13 67 1010.2
20260506091530 43 34 6.0 0.0 0.00 0.00 0.13 77 1010.0
20260506090021 43 119 6.0 0.0 0.00 0.00 0.13 79 1009.7
20260506084516 43 115 5.0 0.0 0.00 0.00 0.12 78 1010.4
20260506083102 45 20 5.0 0.0 0.00 0.00 0.04 75 1010.1
20260506081600 47 90 6.0 0.0 0.00 0.00 0.02 77 1008.8
20260506073042 48 150 0.0 0.0 0.00 0.00 0.01 79 1008.1
20260506071527 49 150 1.0 0.0 0.00 0.00 0.01 79 1008.4
20260506061540 49 190 0.0 0.0 0.00 0.00 0.01 77 1007.7
20260506044607 49 190 0.0 0.0 0.00 0.00 0.01 68 1006.1
20260506043053 49 190 0.0 0.0 0.00 0.00 0.01 67 1006.4
20260506041527 49 190 0.0 0.0 0.00 0.00 0.01 67 1006.4
20260506040005 50 190 0.0 0.0 0.00 0.00 0.01 66 1006.1
20260506034601 50 190 0.0 0.0 0.00 0.00 0.01 65 1006.1
20260506033044 51 190 0.0 0.0 0.00 0.00 0.01 64 1005.7
20260506031541 51 190 0.0 0.0 0.00 0.00 0.01 62 1005.7
20260506030024 53 190 0.0 0.0 0.00 0.00 0.01 58 1005.4
20260506024523 54 190 0.0 0.0 0.00 0.00 0.01 56 1005.2
20260506023102 56 190 0.0 0.0 0.00 0.00 0.01 54 1005.2
20260506021557 57 190 2.0 0.0 0.00 0.00 0.01 51 1004.9
20260506020037 59 190 1.0 0.0 0.00 0.00 0.01 51 1004.7
20260506014524 59 190 1.0 0.0 0.00 0.00 0.01 48 1004.7
20260506013101 60 190 1.0 0.0 0.00 0.00 0.01 47 1004.6
20260506011552 60 191 1.0 0.0 0.00 0.00 0.01 47 1004.6
20260506010015 60 190 0.0 0.0 0.00 0.00 0.01 44 1004.7
20260506004503 60 185 0.0 0.0 0.00 0.00 0.01 43 1004.6
20260506003041 60 185 1.0 0.0 0.00 0.00 0.01 45 1004.7
20260506001541 60 184 2.0 0.0 0.00 0.00 0.01 43 1004.6
20260506000041 59 176 2.0 0.0 0.00 0.00 0.01 46 1004.6
20260505234524 59 148 0.0 0.0 0.00 0.00 0.01 47 1004.6
20260505233012 59 148 1.0 0.0 0.00 0.00 0.01 47 1004.9
20260505231559 58 148 1.0 0.0 0.00 0.00 0.01 51 1004.9
20260505230027 57 148 1.0 0.0 0.00 0.00 0.01 52 1005.2
20260505224526 57 148 1.0 0.0 0.00 0.00 0.01 51 1005.2
20260505223108 56 91 0.0 0.0 0.00 0.00 0.01 53 1005.7
20260505221546 56 91 1.0 0.0 0.00 0.00 0.01 52 1005.8
20260505220025 55 87 2.0 0.0 0.00 0.00 0.01 58 1005.9
20260505214511 54 80 1.0 0.0 0.00 0.00 0.01 62 1006.1
20260505213007 54 26 1.0 0.0 0.00 0.00 0.01 63 1006.1
20260505211627 54 26 1.0 0.0 0.00 0.00 0.01 61 1006.1
20260505210038 56 19 0.0 0.0 0.00 0.00 0.01 61 1006.1
20260505204525 55 19 0.0 0.0 0.00 0.00 0.01 54 1006.0
20260505203003 56 19 2.0 0.0 0.00 0.00 0.01 53 1005.9
20260505201548 56 16 1.0 0.0 0.00 0.00 0.01 50 1005.9
20260505200034 56 15 1.0 0.0 0.00 0.00 0.01 50 1005.8
20260505194511 57 40 2.0 0.0 0.00 0.00 0.01 51 1005.7
20260505193003 56 204 2.0 0.0 0.00 0.00 0.01 48 1005.7
20260505191540 55 203 1.0 0.0 0.00 0.00 0.01 50 1005.6
20260505190018 55 203 1.0 0.0 0.00 0.00 0.01 50 1005.6
20260505184523 55 206 1.0 0.0 0.00 0.00 0.01 50 1005.6
20260505183010 55 209 3.0 0.0 0.00 0.00 0.01 49 1005.5
20260505181550 55 187 4.0 0.0 0.00 0.00 0.01 48 1005.5
20260505180027 55 192 4.0 0.0 0.00 0.00 0.01 49 1005.4
20260505174519 54 211 4.0 0.0 0.00 0.00 0.01 51 1005.4
20260505173102 54 214 3.0 0.0 0.00 0.00 0.01 52 1005.3
20260505171545 54 213 3.0 0.0 0.00 0.00 0.01 51 1005.2